Location: Béaulencourt
(50.0796°N, 2.8795°E)
Time: 10:02:28
(UTC+00:00)

Cosmos 2278 Rocket - Pass Details

Date: 20 January 2026
Orbit: 839 x 846 km, 71.0° (Epoch: 19 February)

Event Time Altitude Azimuth Distance (km) Brightness Sun altitude
Exits shadow 05:30:23 31° 243° (WSW) 1,442 3.0 -19.9°
Maximum altitude 05:32:54 54° 305° (NW) 1,020 2.3 -19.5°
Drops below altitude 10° 05:38:27 10° 23° (NNE) 2,472 4.8 -18.6°
Sets 05:40:59 0° 28° (NNE) 3,412 5.6 -18.2°
